Time[GMT],salinity[psu](1m),sigma_t[kg/m^3](1m),conductivity[msiemens/cm](1m),temperature[C](1m)
2016-07-08 14:00,31.698,23.056,40.793,16.68
2016-07-08 17:00,31.669,22.986,40.952,16.89
2016-07-08 18:00,31.645,22.939,41.033,17.01
2016-07-08 19:00,31.655,22.945,41.054,17.02
2016-07-08 20:00,31.669,22.942,41.125,17.08
2016-07-08 21:00,31.673,22.891,41.340,17.31
2016-07-08 22:00,31.694,22.896,41.411,17.36
2016-07-08 23:00,31.708,22.918,41.381,17.31
2016-07-09 00:00,31.703,22.895,41.448,17.39
2016-07-09 02:00,31.699,22.887,41.462,17.41
2016-07-09 03:00,31.698,22.893,41.433,17.38
2016-07-09 04:00,31.691,22.902,41.370,17.32
2016-07-09 05:00,31.691,22.910,41.343,17.29
2016-07-09 06:00,31.695,22.912,41.347,17.29
2016-07-09 07:00,31.695,22.910,41.357,17.30
2016-07-09 09:00,31.698,22.910,41.369,17.31
2016-07-09 12:00,31.656,22.826,41.522,17.53
2016-07-09 13:00,31.650,22.809,41.560,17.58
2016-07-09 14:00,31.647,22.805,41.566,17.59
2016-07-09 15:00,31.645,22.810,41.536,17.56
2016-07-09 16:00,31.651,22.827,41.498,17.51
2016-07-09 17:00,31.654,22.829,41.501,17.51
2016-07-09 18:00,31.654,22.823,41.529,17.54
2016-07-09 19:00,31.661,22.820,41.564,17.57
2016-07-09 21:00,31.652,22.792,41.636,17.66
2016-07-09 22:00,31.660,22.805,41.618,17.63
2016-07-09 23:00,31.668,22.821,41.591,17.59
2016-07-10 01:00,31.578,22.761,41.448,17.55
2016-07-10 02:00,31.607,22.772,41.528,17.60
2016-07-10 03:00,31.618,22.774,41.569,17.63
2016-07-10 04:00,31.616,22.772,41.566,17.63
2016-07-10 06:00,31.628,22.786,41.562,17.61
2016-07-10 07:00,31.633,22.790,41.568,17.61
2016-07-10 08:00,31.634,22.793,41.560,17.60
2016-07-10 09:00,31.633,22.795,41.550,17.59
2016-07-10 10:00,31.648,22.804,41.577,17.60
2016-07-10 11:00,31.659,22.819,41.562,17.57
2016-07-10 12:00,31.670,22.832,41.557,17.55
2016-07-10 13:00,31.694,22.857,41.557,17.52
2016-07-10 14:00,31.697,22.860,41.561,17.52
2016-07-10 17:00,31.718,22.860,41.650,17.59
2016-07-10 18:00,31.719,22.851,41.688,17.63
2016-07-10 19:00,31.694,22.826,41.676,17.65
2016-07-10 20:00,31.691,22.824,41.673,17.65
2016-07-10 21:00,31.691,22.832,41.646,17.62
2016-07-10 22:00,31.671,22.819,41.613,17.61
2016-07-10 23:00,31.646,22.797,41.593,17.62
2016-07-11 01:00,31.630,22.787,41.564,17.61
2016-07-11 02:00,31.624,22.782,41.557,17.61
2016-07-11 03:00,31.626,22.791,41.532,17.58
2016-07-11 04:00,31.629,22.798,41.517,17.56
2016-07-11 05:00,31.627,22.797,41.515,17.56
2016-07-11 06:00,31.629,22.803,41.499,17.54
2016-07-11 07:00,31.644,22.820,41.499,17.52
2016-07-11 08:00,31.648,22.822,41.503,17.52
2016-07-11 10:00,31.580,22.815,41.250,17.33
2016-07-11 11:00,31.563,22.821,41.157,17.25
2016-07-11 12:00,31.671,22.863,41.438,17.42
2016-07-11 13:00,31.703,22.871,41.540,17.49
2016-07-11 14:00,31.717,22.828,41.768,17.72
2016-07-11 15:00,31.603,22.657,41.955,18.07
2016-07-11 16:00,31.735,22.620,42.628,18.63
2016-07-11 17:00,31.655,22.613,42.329,18.41
2016-07-11 18:00,31.609,22.583,42.256,18.39
2016-07-11 20:00,31.678,22.682,42.163,18.20
2016-07-11 21:00,31.696,22.720,42.093,18.10
2016-07-11 22:00,31.721,22.732,42.150,18.13
2016-07-11 23:00,31.700,22.745,42.014,18.01
2016-07-12 01:00,31.433,22.707,41.059,17.31
2016-07-12 02:00,31.386,22.690,40.931,17.23
2016-07-12 03:00,31.369,22.682,40.894,17.21
2016-07-12 05:00,31.371,22.671,40.941,17.26
2016-07-12 06:00,31.388,22.668,41.025,17.33
2016-07-12 07:00,31.398,22.683,41.009,17.30
2016-07-12 08:00,31.413,22.699,41.008,17.28
2016-07-12 09:00,31.473,22.724,41.161,17.37
2016-07-12 10:00,31.415,22.696,41.029,17.30
2016-07-12 11:00,31.385,22.682,40.958,17.26
2016-07-12 12:00,31.367,22.669,40.937,17.26
2016-07-12 13:00,31.364,22.645,41.015,17.35
2016-07-12 15:00,31.347,22.526,41.404,17.80
2016-07-12 17:00,31.360,22.425,41.839,18.26
2016-07-12 18:00,31.353,22.395,41.922,18.36
2016-07-12 19:00,31.374,22.384,42.047,18.47
2016-07-12 20:00,31.366,22.449,41.773,18.18
2016-07-12 21:00,31.354,22.497,41.539,17.94
2016-07-12 22:00,31.363,22.531,41.450,17.83
2016-07-13 00:00,31.410,22.593,41.405,17.72
2016-07-13 01:00,31.422,22.587,41.474,17.78
2016-07-13 02:00,31.389,22.538,41.526,17.88
2016-07-13 03:00,31.389,22.527,41.572,17.93
2016-07-13 04:00,31.423,22.567,41.558,17.87
2016-07-13 05:00,31.417,22.562,41.550,17.87
2016-07-13 06:00,31.418,22.568,41.533,17.85
2016-07-13 07:00,31.421,22.573,41.528,17.84
2016-07-13 08:00,31.411,22.560,41.534,17.86
2016-07-13 10:00,31.419,22.578,41.498,17.81
2016-07-13 11:00,31.433,22.593,41.496,17.79
2016-07-13 12:00,31.455,22.627,41.459,17.72
2016-07-13 13:00,31.428,22.604,41.436,17.73
2016-07-13 14:00,31.444,22.564,41.656,17.95
2016-07-13 15:00,31.470,22.540,41.851,18.13
2016-07-13 16:00,31.466,22.530,41.874,18.16
2016-07-13 17:00,31.478,22.518,41.971,18.25
2016-07-13 19:00,31.460,22.437,42.196,18.52
2016-07-13 20:00,31.470,22.421,42.300,18.62
2016-07-13 21:00,31.482,22.430,42.315,18.62
2016-07-13 22:00,31.487,22.449,42.266,18.56
2016-07-13 23:00,,,,
2016-07-14 01:00,31.545,22.549,42.124,18.33
2016-07-14 02:00,31.569,22.580,42.107,18.28
2016-07-14 04:00,31.603,22.656,41.954,18.07
2016-07-14 05:00,31.600,22.686,41.832,17.94
2016-07-14 06:00,31.603,22.724,41.698,17.79
2016-07-14 07:00,31.595,22.737,41.615,17.71
2016-07-14 08:00,31.591,22.760,41.509,17.60
2016-07-14 09:00,31.577,22.763,41.438,17.54
2016-07-14 10:00,31.565,22.773,41.351,17.46
2016-07-14 11:00,31.541,22.759,41.304,17.44
2016-07-14 12:00,31.520,22.746,41.271,17.43
2016-07-14 14:00,31.480,22.739,41.133,17.33
2016-07-14 15:00,31.484,22.739,41.146,17.34
2016-07-14 17:00,31.490,22.720,41.244,17.44
2016-07-14 18:00,,,,
2016-07-14 19:00,31.492,22.693,41.356,17.56
2016-07-14 20:00,31.500,22.673,41.466,17.67
2016-07-14 21:00,,,,
2016-07-14 23:00,31.543,22.663,41.681,17.85
2016-07-15 00:00,,,,
2016-07-15 01:00,31.548,22.689,41.605,17.76
2016-07-15 02:00,31.542,22.692,41.571,17.73
2016-07-15 03:00,31.544,22.686,41.600,17.76
2016-07-15 04:00,31.551,22.684,41.636,17.79
2016-07-15 05:00,31.536,22.653,41.691,17.87
2016-07-15 06:00,31.540,22.666,41.660,17.83
2016-07-15 09:00,31.523,22.674,41.557,17.74
2016-07-15 10:00,31.526,22.684,41.533,17.71
2016-07-15 11:00,31.522,22.683,41.519,17.70
2016-07-15 12:00,31.501,22.679,41.449,17.65
2016-07-15 13:00,31.479,22.660,41.432,17.66
2016-07-15 14:00,31.481,22.635,41.535,17.77
2016-07-15 15:00,31.477,22.587,41.704,17.96
2016-07-15 16:00,31.505,22.538,42.003,18.25
2016-07-15 18:00,31.519,22.431,42.460,18.73
2016-07-15 19:00,31.529,22.384,42.675,18.95
2016-07-15 20:00,31.550,22.345,42.904,19.17
2016-07-15 21:00,31.535,22.321,42.932,19.22
2016-07-15 22:00,31.528,22.354,42.785,19.07
2016-07-15 23:00,31.537,22.393,42.676,18.94
2016-07-16 00:00,31.540,22.415,42.606,18.86
2016-07-16 01:00,31.540,22.445,42.495,18.74
2016-07-16 03:00,31.537,22.450,42.464,18.71
2016-07-16 04:00,31.540,22.461,42.430,18.67
2016-07-16 05:00,31.542,22.493,42.323,18.55
2016-07-16 06:00,31.554,22.512,42.300,18.51
2016-07-16 07:00,31.552,22.498,42.344,18.56
2016-07-16 08:00,31.548,22.492,42.348,18.57
2016-07-16 09:00,31.549,22.513,42.276,18.49
2016-07-16 10:00,31.544,22.524,42.215,18.43
2016-07-16 12:00,31.534,22.502,42.258,18.49
2016-07-16 13:00,31.538,22.468,42.401,18.64
2016-07-16 14:00,31.535,22.411,42.600,18.86
2016-07-16 15:00,31.540,22.312,42.984,19.27
2016-07-16 16:00,31.529,22.228,43.247,19.57
2016-07-16 17:00,31.423,22.001,43.644,20.14
2016-07-16 18:00,31.676,22.296,43.586,19.74
2016-07-16 19:00,31.547,22.049,43.966,20.32
2016-07-16 20:00,31.587,22.011,44.258,20.58
2016-07-16 22:00,31.577,22.131,43.789,20.09
2016-07-16 23:00,31.571,22.186,43.568,19.86
2016-07-17 00:00,31.559,22.115,43.776,20.10
2016-07-17 01:00,31.564,22.160,43.634,19.94
2016-07-17 02:00,31.554,22.206,43.427,19.73
2016-07-17 03:00,31.557,22.234,43.337,19.63
2016-07-17 04:00,31.555,22.181,43.520,19.83
2016-07-17 05:00,31.568,22.171,43.611,19.91
2016-07-17 06:00,31.580,22.236,43.421,19.69
2016-07-17 08:00,31.595,22.356,43.041,19.26
2016-07-17 09:00,31.609,22.425,42.846,19.03
2016-07-17 10:00,31.606,22.498,42.566,18.73
2016-07-17 11:00,31.597,22.618,42.076,18.21
2016-07-17 12:00,31.591,22.702,41.729,17.84
2016-07-17 13:00,31.601,22.722,41.695,17.79
2016-07-17 14:00,31.609,22.759,41.585,17.66
2016-07-17 15:00,31.607,22.696,41.822,17.92
2016-07-17 17:00,31.574,22.663,41.810,17.95
2016-07-17 18:00,31.574,22.613,42.003,18.16
2016-07-17 19:00,31.588,22.543,42.323,18.49
2016-07-17 20:00,31.672,22.535,42.691,18.78
2016-07-17 21:00,31.605,22.432,42.804,18.99
2016-07-17 22:00,31.604,22.384,42.979,19.18
2016-07-17 23:00,31.577,22.366,42.937,19.17
2016-07-18 00:00,31.596,22.340,43.108,19.33
2016-07-18 02:00,31.599,22.372,43.000,19.21
2016-07-18 03:00,31.598,22.377,42.981,19.19
2016-07-18 04:00,31.605,22.460,42.703,18.88
2016-07-18 05:00,31.606,22.473,42.658,18.83
2016-07-18 06:00,31.583,22.477,42.547,18.74
2016-07-18 07:00,31.588,22.469,42.599,18.79
2016-07-18 08:00,31.611,22.528,42.470,18.62
2016-07-18 09:00,31.568,22.618,41.959,18.12
2016-07-18 11:00,31.541,22.585,41.972,18.17
2016-07-18 12:00,31.547,22.606,41.915,18.10
2016-07-18 13:00,31.561,22.581,42.070,18.25
2016-07-18 14:00,31.586,22.455,42.643,18.84
2016-07-18 15:00,31.592,22.349,43.056,19.28
2016-07-18 16:00,31.580,22.280,43.264,19.52
2016-07-18 17:00,31.576,22.233,43.416,19.69
2016-07-18 18:00,31.581,22.270,43.302,19.56
2016-07-18 19:00,31.586,22.256,43.373,19.63
2016-07-18 21:00,31.528,22.381,42.683,18.96
2016-07-18 22:00,31.548,22.366,42.818,19.08
2016-07-18 23:00,31.555,22.392,42.753,19.00
2016-07-19 00:00,31.578,22.464,42.578,18.78
2016-07-19 01:00,31.592,22.531,42.383,18.55
2016-07-19 02:00,31.602,22.583,42.229,18.37
2016-07-19 03:00,31.607,22.630,42.069,18.19
2016-07-19 04:00,31.610,22.642,42.036,18.15
2016-07-19 05:00,31.608,22.621,42.107,18.23
2016-07-19 07:00,31.619,22.625,42.139,18.25
2016-07-19 09:00,31.589,22.653,41.910,18.04
2016-07-19 10:00,31.580,22.661,41.845,17.98
2016-07-19 11:00,31.586,22.658,41.879,18.01
2016-07-19 12:00,31.611,22.655,41.991,18.10
2016-07-19 13:00,31.613,22.589,42.251,18.38
2016-07-19 14:00,31.604,22.570,42.287,18.43
2016-07-19 16:00,31.611,22.481,42.645,18.81
2016-07-19 17:00,31.635,22.400,43.044,19.21
2016-07-19 18:00,31.607,22.316,43.242,19.46
2016-07-19 19:00,31.635,22.296,43.424,19.62
2016-07-19 20:00,31.614,22.315,43.268,19.48
2016-07-19 21:00,31.625,22.375,43.097,19.28
2016-07-19 22:00,31.598,22.459,42.676,18.86
2016-07-19 23:00,31.582,22.462,42.601,18.80
2016-07-20 00:00,31.585,22.481,42.540,18.73
2016-07-20 02:00,31.601,22.491,42.569,18.74
2016-07-20 03:00,31.601,22.499,42.541,18.71
2016-07-20 04:00,31.603,22.510,42.507,18.67
2016-07-20 05:00,31.603,22.515,42.488,18.65
2016-07-20 06:00,31.602,22.494,42.560,18.73
2016-07-20 07:00,31.596,22.499,42.516,18.69
2016-07-20 08:00,31.592,22.499,42.502,18.68
2016-07-20 09:00,31.598,22.514,42.473,18.64
2016-07-20 11:00,31.603,22.557,42.332,18.48
2016-07-20 12:00,31.609,22.574,42.293,18.43
2016-07-20 13:00,31.614,22.572,42.317,18.45
2016-07-20 14:00,31.612,22.559,42.361,18.50
2016-07-20 15:00,31.614,22.545,42.418,18.56
2016-07-20 17:00,31.639,22.438,42.920,19.07
2016-07-20 18:00,31.624,22.384,43.058,19.24
2016-07-20 19:00,31.637,22.404,43.037,19.20
2016-07-20 21:00,31.642,22.407,43.043,19.20
2016-07-20 22:00,31.645,22.392,43.112,19.27
2016-07-20 23:00,31.641,22.399,43.070,19.23
2016-07-21 00:00,31.644,22.447,42.907,19.05
2016-07-21 01:00,31.630,22.439,42.881,19.04
2016-07-21 02:00,31.627,22.421,42.932,19.10
2016-07-21 03:00,31.621,22.412,42.944,19.12
2016-07-21 04:00,31.621,22.414,42.934,19.11
2016-07-21 06:00,31.635,22.475,42.767,18.91
2016-07-21 07:00,31.640,22.472,42.801,18.94
2016-07-21 09:00,31.645,22.485,42.769,18.90
2016-07-21 10:00,31.646,22.498,42.724,18.85
2016-07-21 11:00,31.647,22.501,42.716,18.84
2016-07-21 12:00,31.647,22.479,42.800,18.93
2016-07-21 13:00,31.644,22.444,42.916,19.06
2016-07-21 14:00,31.581,22.303,43.182,19.43
2016-07-21 16:00,31.632,22.340,43.254,19.44
2016-07-21 17:00,31.659,22.358,43.296,19.45
2016-07-21 18:00,31.638,22.339,43.279,19.46
2016-07-21 19:00,31.643,22.333,43.323,19.50
2016-07-21 20:00,31.642,22.327,43.340,19.52
2016-07-21 21:00,31.635,22.294,43.434,19.63
2016-07-21 22:00,31.640,22.302,43.421,19.61
2016-07-22 01:00,31.635,22.347,43.239,19.42
2016-07-22 02:00,31.633,22.340,43.255,19.44
2016-07-22 03:00,31.638,22.349,43.242,19.42
2016-07-22 04:00,31.634,22.351,43.219,19.40
2016-07-22 05:00,31.636,22.363,43.184,19.36
2016-07-22 06:00,31.638,22.377,43.140,19.31
2016-07-22 07:00,31.637,22.376,43.139,19.31
2016-07-22 08:00,31.642,22.417,43.006,19.16
2016-07-22 10:00,31.648,22.452,42.902,19.04
2016-07-22 11:00,31.652,22.465,42.870,19.00
2016-07-22 12:00,31.656,22.478,42.838,18.96
2016-07-22 13:00,31.665,22.502,42.784,18.89
2016-07-22 14:00,31.670,22.506,42.790,18.89
2016-07-22 15:00,31.666,22.466,42.924,19.04
2016-07-22 17:00,31.673,22.383,43.257,19.39
2016-07-22 18:00,31.690,22.366,43.389,19.51
2016-07-22 20:00,31.668,22.323,43.455,19.61
2016-07-22 21:00,31.669,22.304,43.531,19.69
2016-07-22 22:00,31.655,22.288,43.532,19.71
2016-07-22 23:00,31.648,22.288,43.505,19.69
2016-07-23 00:00,31.660,22.297,43.520,19.69
2016-07-23 01:00,31.657,22.310,43.460,19.63
2016-07-23 02:00,31.652,22.296,43.492,19.67
2016-07-23 03:00,31.662,22.298,43.522,19.69
2016-07-23 05:00,,,,
2016-07-23 06:00,31.671,22.321,43.478,19.63
2016-07-23 07:00,31.672,22.326,43.460,19.61
2016-07-23 09:00,31.667,22.338,43.398,19.55
2016-07-23 10:00,31.660,22.355,43.306,19.46
2016-07-23 11:00,31.664,22.386,43.209,19.35
2016-07-23 12:00,31.666,22.393,43.193,19.33
2016-07-23 13:00,31.649,22.324,43.376,19.55
2016-07-23 15:00,31.621,22.118,44.011,20.27
2016-07-23 16:00,31.642,22.005,44.495,20.76
2016-07-23 17:00,31.652,22.094,44.217,20.45
2016-07-23 18:00,31.655,21.970,44.670,20.93
2016-07-23 19:00,31.662,21.924,44.857,21.12
2016-07-23 20:00,31.683,22.010,44.640,20.86
2016-07-23 21:00,31.650,21.987,44.589,20.85
2016-07-23 22:00,31.666,22.110,44.216,20.43
2016-07-24 01:00,31.532,22.141,43.576,19.92
2016-07-24 02:00,,,,
2016-07-24 03:00,31.558,22.176,43.552,19.86
2016-07-24 04:00,31.596,22.263,43.385,19.63
2016-07-24 05:00,31.606,22.279,43.370,19.60
2016-07-24 06:00,31.591,22.265,43.361,19.61
2016-07-24 07:00,31.600,22.275,43.363,19.60
2016-07-24 08:00,31.628,22.387,43.063,19.24
2016-07-24 10:00,31.587,22.478,42.561,18.75
2016-07-24 11:00,31.608,22.548,42.383,18.53
2016-07-24 12:00,31.597,22.562,42.288,18.44
2016-07-24 13:00,31.574,22.399,42.804,19.03
2016-07-24 14:00,31.589,22.312,43.182,19.42
2016-07-24 15:00,31.585,22.251,43.391,19.65
2016-07-24 17:00,31.560,22.019,44.121,20.47
2016-07-24 19:00,31.529,22.053,43.878,20.25
2016-07-24 20:00,31.627,22.154,43.907,20.15
2016-07-24 21:00,31.646,22.235,43.688,19.89
2016-07-24 22:00,31.642,22.173,43.898,20.12
2016-07-24 23:00,31.632,22.183,43.820,20.05
2016-07-25 00:00,31.620,22.215,43.656,19.89
2016-07-25 01:00,31.604,22.265,43.414,19.65
2016-07-25 02:00,31.587,22.259,43.365,19.62
2016-07-25 04:00,31.598,22.316,43.203,19.43
2016-07-25 05:00,31.608,22.356,43.094,19.30
2016-07-25 06:00,31.616,22.435,42.836,19.01
2016-07-25 07:00,31.655,22.584,42.440,18.53
2016-07-25 09:00,31.633,22.476,42.755,18.90
2016-07-25 10:00,31.627,22.454,42.813,18.97
2016-07-25 11:00,31.630,22.463,42.788,18.94
2016-07-25 12:00,31.626,22.451,42.821,18.98
2016-07-25 14:00,31.651,22.512,42.693,18.81
2016-07-25 15:00,31.732,22.451,43.246,19.30
2016-07-25 16:00,31.629,22.245,43.584,19.80
2016-07-25 17:00,31.600,22.109,43.957,20.24
2016-07-25 18:00,31.602,22.156,43.802,20.07
2016-07-25 19:00,31.592,22.049,44.143,20.45
2016-07-25 20:00,31.574,22.011,44.204,20.54
2016-07-25 21:00,31.593,22.020,44.246,20.56
2016-07-25 23:00,31.641,22.046,44.344,20.60
2016-07-26 01:00,31.580,22.079,43.988,20.30
2016-07-26 02:00,31.574,22.048,44.073,20.40
2016-07-26 03:00,31.560,22.066,43.954,20.29
2016-07-26 04:00,31.542,22.081,43.829,20.18
2016-07-26 05:00,31.579,22.164,43.680,19.97
2016-07-26 06:00,31.608,22.183,43.725,19.98
2016-07-26 07:00,31.622,22.238,43.585,19.81
2016-07-26 09:00,31.612,22.248,43.507,19.74
2016-07-26 10:00,31.610,22.335,43.180,19.39
2016-07-26 11:00,31.597,22.306,43.239,19.47
2016-07-26 12:00,31.619,22.324,43.256,19.46
2016-07-26 13:00,31.634,22.344,43.247,19.43
2016-07-26 14:00,31.641,22.273,43.534,19.73
2016-07-26 15:00,31.611,22.076,44.120,20.40
2016-07-26 16:00,31.618,21.965,44.539,20.84
2016-07-26 18:00,31.601,21.661,45.530,21.92
2016-07-26 19:00,31.438,21.529,45.347,21.95
2016-07-26 20:00,31.521,21.608,45.398,21.89
2016-07-26 21:00,31.522,21.658,45.231,21.71
2016-07-26 22:00,31.543,21.751,44.996,21.43
2016-07-26 23:00,,,,
2016-07-27 00:00,31.544,21.856,44.632,21.04
2016-07-27 01:00,31.541,21.867,44.582,20.99
2016-07-27 02:00,31.541,21.920,44.396,20.79
2016-07-27 04:00,31.539,21.972,44.207,20.59
2016-07-27 05:00,31.540,21.977,44.189,20.57
2016-07-27 06:00,31.470,21.840,44.399,20.89
2016-07-27 07:00,31.513,21.931,44.249,20.67
2016-07-27 09:00,31.485,21.967,44.009,20.45
2016-07-27 10:00,31.366,21.889,43.813,20.40
2016-07-27 11:00,31.350,21.935,43.590,20.18
2016-07-27 13:00,31.213,21.797,43.539,20.31
2016-07-27 14:00,31.207,21.787,43.550,20.33
2016-07-27 15:00,31.193,21.777,43.533,20.33
2016-07-27 16:00,31.325,21.754,44.133,20.80
2016-07-27 17:00,31.076,21.199,45.065,22.15
2016-07-27 18:00,31.208,21.319,45.171,22.08
2016-07-27 19:00,31.334,21.592,44.729,21.43
2016-07-27 20:00,31.457,21.688,44.877,21.42
2016-07-27 21:00,31.538,21.722,45.074,21.52
2016-07-27 23:00,31.548,21.781,44.908,21.33
2016-07-28 01:00,31.495,21.827,44.543,21.01
2016-07-28 02:00,31.496,21.857,44.441,20.90
2016-07-28 03:00,31.450,21.819,44.392,20.91
2016-07-28 04:00,31.422,21.835,44.227,20.77
2016-07-28 05:00,31.325,21.856,43.771,20.41
2016-07-28 06:00,31.275,21.813,43.728,20.43
2016-07-28 08:00,31.279,21.852,43.603,20.29
2016-07-28 09:00,31.279,21.855,43.594,20.28
2016-07-28 10:00,31.276,21.858,43.572,20.26
2016-07-28 11:00,31.282,21.862,43.579,20.26
2016-07-28 12:00,31.279,21.831,43.677,20.37
2016-07-28 13:00,31.265,21.777,43.817,20.54
2016-07-28 14:00,31.310,21.805,43.891,20.56
2016-07-28 17:00,31.282,21.662,44.282,21.02
2016-07-28 18:00,31.295,21.682,44.261,20.98
2016-07-28 19:00,31.308,21.661,44.389,21.10
2016-07-28 20:00,31.319,21.701,44.292,20.98
2016-07-28 21:00,31.339,21.743,44.224,20.88
2016-07-28 22:00,31.341,21.773,44.125,20.77
2016-07-28 23:00,31.353,21.795,44.093,20.72
2016-07-29 00:00,31.349,21.793,44.089,20.72
2016-07-29 01:00,31.333,21.760,44.143,20.80
2016-07-29 03:00,31.339,21.762,44.160,20.81
2016-07-29 04:00,31.391,21.814,44.178,20.76
2016-07-29 05:00,31.453,21.922,44.043,20.53
2016-07-29 06:00,31.412,22.090,43.279,19.76
2016-07-29 07:00,31.468,22.081,43.533,19.96
2016-07-29 09:00,31.455,22.056,43.573,20.02
2016-07-29 10:00,31.294,21.962,43.271,19.91
2016-07-29 12:00,31.439,22.057,43.507,19.97
2016-07-29 13:00,31.436,22.031,43.586,20.06
2016-07-29 14:00,31.469,22.052,43.646,20.08
2016-07-29 15:00,31.475,22.045,43.690,20.12
2016-07-29 16:00,31.488,22.042,43.752,20.17
2016-07-29 17:00,31.503,22.059,43.753,20.15
2016-07-29 18:00,31.491,22.016,43.858,20.28
2016-07-29 19:00,31.459,21.927,44.051,20.53
2016-07-29 20:00,31.448,21.836,44.325,20.84
2016-07-29 22:00,31.430,21.830,44.274,20.81
2016-07-29 23:00,31.422,21.835,44.227,20.77
2016-07-30 01:00,31.431,21.884,44.090,20.61
2016-07-30 02:00,31.428,21.845,44.216,20.75
2016-07-30 03:00,31.437,21.849,44.237,20.76
2016-07-30 04:00,31.468,21.859,44.322,20.81
2016-07-30 05:00,31.493,21.894,44.298,20.75
2016-07-30 07:00,31.509,21.944,44.188,20.61
2016-07-30 08:00,31.544,22.012,44.083,20.45
2016-07-30 09:00,31.558,22.044,44.026,20.37
2016-07-30 10:00,31.551,22.054,43.961,20.31
2016-07-30 11:00,31.549,22.060,43.931,20.28
2016-07-30 12:00,31.562,22.057,43.994,20.33
2016-07-30 13:00,31.562,22.057,43.994,20.33
2016-07-30 14:00,31.528,21.958,44.212,20.61
2016-07-30 17:00,31.480,21.719,44.859,21.37
2016-07-30 18:00,31.567,21.643,45.457,21.89
2016-07-30 19:00,31.467,21.568,45.329,21.89
2016-07-30 20:00,31.462,21.561,45.331,21.90
2016-07-30 21:00,31.433,21.522,45.350,21.96
2016-07-30 22:00,31.406,21.562,45.110,21.74
2016-07-30 23:00,31.448,21.687,44.847,21.40
2016-07-31 00:00,31.471,21.760,44.680,21.19
2016-07-31 02:00,31.505,21.794,44.695,21.16
2016-07-31 03:00,31.517,21.779,44.794,21.25
2016-07-31 04:00,31.528,21.798,44.771,21.21
2016-07-31 05:00,31.531,21.833,44.663,21.09
2016-07-31 06:00,31.509,21.829,44.588,21.04
2016-07-31 07:00,31.487,21.879,44.328,20.79
2016-07-31 08:00,31.490,21.892,44.294,20.75
2016-07-31 09:00,31.501,21.893,44.336,20.78
2016-07-31 11:00,31.505,21.911,44.285,20.72
2016-07-31 12:00,31.507,21.923,44.250,20.68
2016-07-31 13:00,31.486,21.928,44.149,20.60
2016-07-31 14:00,31.471,21.941,44.047,20.51
2016-07-31 15:00,31.454,21.922,44.044,20.53
2016-07-31 16:00,31.445,21.913,44.042,20.54
2016-07-31 17:00,31.454,21.922,44.044,20.53
2016-07-31 18:00,31.456,21.924,44.047,20.53
2016-07-31 19:00,31.460,21.929,44.042,20.52
2016-07-31 21:00,31.475,21.912,44.163,20.63
2016-07-31 22:00,31.473,21.908,44.170,20.64
2016-07-31 23:00,31.478,21.914,44.167,20.63
2016-08-01 00:00,31.476,21.916,44.156,20.62
2016-08-01 01:00,31.483,21.934,44.118,20.57
2016-08-01 02:00,31.463,21.924,44.074,20.55
2016-08-01 03:00,31.467,21.938,44.042,20.51
2016-08-01 04:00,31.458,21.941,43.993,20.47
2016-08-01 06:00,31.433,21.943,43.888,20.39
2016-08-01 07:00,31.406,21.930,43.826,20.36
2016-08-01 08:00,31.434,21.942,43.899,20.40
2016-08-01 09:00,31.441,21.942,43.926,20.42
2016-08-01 10:00,31.442,21.924,43.992,20.49
2016-08-01 11:00,31.451,21.931,44.003,20.49
2016-08-01 12:00,31.462,21.936,44.026,20.50
2016-08-01 13:00,31.465,21.939,44.030,20.50
2016-08-01 14:00,31.469,21.934,44.063,20.53
2016-08-01 16:00,31.474,21.945,44.041,20.50
2016-08-01 17:00,31.471,21.954,44.001,20.46
2016-08-01 18:00,31.412,21.948,43.788,20.31
2016-08-01 19:00,31.400,21.960,43.699,20.23
2016-08-01 20:00,31.390,21.958,43.668,20.21
2016-08-01 21:00,31.394,21.968,43.645,20.18
2016-08-01 22:00,31.407,21.934,43.818,20.35
2016-08-01 23:00,31.410,21.923,43.868,20.40
2016-08-02 01:00,31.416,21.909,43.941,20.47
2016-08-02 02:00,31.437,21.923,43.977,20.48
2016-08-02 03:00,31.449,21.932,43.992,20.48
2016-08-02 04:00,31.452,21.952,43.930,20.41
2016-08-02 05:00,31.449,21.976,43.834,20.31
2016-08-02 06:00,31.409,22.016,43.534,20.04
2016-08-02 07:00,31.359,22.062,43.167,19.71
2016-08-02 08:00,31.343,22.094,42.991,19.54
2016-08-02 09:00,31.353,22.053,43.179,19.73
2016-08-02 11:00,31.334,21.995,43.312,19.90
2016-08-02 12:00,31.333,22.017,43.228,19.81
2016-08-02 13:00,31.335,22.024,43.212,19.79
2016-08-02 14:00,31.357,22.015,43.331,19.89
2016-08-02 15:00,31.383,22.032,43.372,19.90
2016-08-02 16:00,31.377,21.987,43.513,20.06
2016-08-02 17:00,31.350,21.904,43.701,20.30
2016-08-02 18:00,31.329,21.840,43.841,20.48
2016-08-02 20:00,31.325,21.835,43.846,20.49
2016-08-02 21:00,31.318,21.803,43.929,20.59
2016-08-02 22:00,31.321,21.808,43.924,20.58
2016-08-02 23:00,31.325,21.827,43.873,20.52
2016-08-03 00:00,31.344,21.844,43.888,20.51
2016-08-03 01:00,31.358,21.894,43.767,20.36
2016-08-03 02:00,31.393,21.934,43.764,20.31
2016-08-03 03:00,31.379,21.934,43.710,20.27
2016-08-03 05:00,31.339,21.921,43.595,20.20
2016-08-03 06:00,31.323,21.893,43.630,20.26
2016-08-03 07:00,31.330,21.919,43.565,20.18
2016-08-03 08:00,31.395,21.977,43.619,20.15
2016-08-03 09:00,31.488,22.068,43.660,20.07
2016-08-03 10:00,31.517,22.106,43.640,20.01
2016-08-03 11:00,31.515,22.127,43.554,19.92
2016-08-03 12:00,31.521,22.140,43.534,19.89
2016-08-03 13:00,31.526,22.097,43.707,20.07
2016-08-03 15:00,31.432,21.877,44.119,20.64
2016-08-03 16:00,31.487,21.850,44.430,20.90